sat.trackr.live / text

‹ back to catalog

QPS-SAR-14 (YACHIHOKO-I)

NORAD 66316 · 2025-252A

PAYLOAD ACTIVE UNKNOWN

§ Identity

Operator
Country
JPN
Launch date
2025-11-05
Launch site
RLLB
Launch vehicle
Mass (kg)
RCS (m²)

External: N2YO · Heavens-Above · Gunter

§ Orbital elements

Epoch: 2026-09-20T05:22:08.216544Z

Period
96.00 min
Inclination
42.0055°
Eccentricity
0.0003826
Mean motion
15.00058778 rev/d
Perigee alt
564.1 km
Apogee alt
569.4 km
Semi-major
6,944.9 km
B*
2.0284e-4
RAAN
329.2195°
Arg perigee
163.1918°
Mean anomaly
196.9035°
Rev number
4,778

§ Raw data

QPS-SAR-14 (YACHIHOKO-I)1 66316U 25252A   26263.22370621  .00002386  00000+0  20284-3 0  99972 66316  42.0055 329.2195 0003826 163.1918 196.9035 15.00058778 47789

JSON: /api/v1/satellites/66316 · /tle

For live sub-satellite position, see the globe view (requires WebGL).

§ Visibility from observer

Set your observer location to see the next 7 days of passes ≥ 10°. The values pass through the URL so the page stays shareable.

No JS? Fill the form by hand. The geolocation button needs JavaScript.